This demonstration page uses our WeatherBlox Daily Observations layout. Learn more.

Left ArrowRight Arrow

36.19886, -115.1175

Hourly Observations for August 8, 2016

Temp ( °F °C ) Dew Point ( °F °C ) Humidity (%) Winds ( mph kmh ) Pressure ( in mb ) Visibility ( mi km ) Precip ( " mm )
12:53 am 00:53 Clear 89 31.7 38 3.3 16 16 WSW 7 11 29.69 1005 10 16.0934 0 0
1:53 am 01:53 Clear 86 30 39 3.9 19 19 NNW 8 13 29.69 1006 10 16.0934 0 0
2:53 am 02:53 Clear 86 30 36 2.2 17 17 N 6 9 29.7 1006 10 16.0934 0 0
3:53 am 03:53 Clear 84 28.9 32 0 15 15 NNE 12 19 29.7 1006 10 16.0934 0 0
4:53 am 04:53 Clear 82 27.8 34 1.1 18 18 Calm 29.71 1006 10 16.0934 0 0
5:53 am 05:53 Clear 84 28.9 33 0.6 16 16 ENE 5 7 29.72 1007 10 16.0934 0 0
6:53 am 06:53 Sunny 81 27.2 34 1.1 18 18 N 3 6 29.75 1007 10 16.0934 0 0
7:53 am 07:53 Sunny 85 29.4 36 2.2 17 17 N 5 7 29.75 1008 10 16.0934 0 0
8:53 am 08:53 Sunny 88 31.1 37 2.8 16 16 Calm 29.76 1008 10 16.0934 0 0
9:53 am 09:53 Sunny 92 33.3 37 2.8 14 14 ESE 3 6 29.76 1008 10 16.0934 0 0
10:53 am 10:53 Sunny 98 36.7 38 3.3 12 12 ESE 14 22 29.75 1007 10 16.0934 0 0
11:16 am 11:16 Sunny 100 38 37 3 11 11 S 17 28 29.59 1002 10 16.0934 0 0
11:53 am 11:53 Sunny 101 38.3 38 3.3 11 11 SSW 21 33 29.73 1007 10 16.0934 0 0
12:53 pm 12:53 Sunny 102 38.9 36 2.2 10 10 SW 16 26 29.72 1006 10 16.0934 0 0
1:53 pm 13:53 Sunny 104 40 33 0.6 8 8 W 13 20 29.7 1006 10 16.0934 0 0
2:53 pm 14:53 Sunny 103 39.4 34 1.1 9 9 W 9 15 29.67 1005 10 16.0934 0 0
3:53 pm 15:53 Sunny 105 40.6 35 1.7 9 9 S 16 26 29.65 1004 10 16.0934 0 0
4:53 pm 16:53 Sunny 104 40 35 1.7 9 9 SW 14 22 29.64 1004 10 16.0934 0 0
5:53 pm 17:53 Sunny 104 40 34 1.1 9 9 WSW 15 24 29.62 1003 10 16.0934 0 0
6:53 pm 18:53 Sunny 102 38.9 32 0 9 9 WSW 10 17 29.62 1003 10 16.0934 0 0
7:53 pm 19:53 Clear 99 37.2 31 -0.6 9 9 W 12 19 29.63 1004 10 16.0934 0 0
8:53 pm 20:53 Clear 97 36.1 31 -0.6 10 10 WSW 7 11 29.66 1004 10 16.0934 0 0
9:53 pm 21:53 Clear 93 33.9 33 0.6 12 12 S 3 6 29.67 1005 10 16.0934 0 0
10:53 pm 22:53 Clear 93 33.9 34 1.1 12 12 SW 7 11 29.67 1005 10 16.0934 0 0
11:53 pm 23:53 Clear 91 32.8 33 0.6 13 13 SSW 12 19 29.67 1005 10 16.0934 0 0

Powered by AerisWeather